[[{"header":{"parameterUnit":"m.s-1","parameterCategory":1,"la1":30.2991,"la2":30.254,"lo1":-89.0895,"lo2":-89.0444,"dy":0.0017,"dx":0.0017,"nx":28,"ny":28,"refTime":"2025-04-28T21:00:00:Z","depth":0,"parameterNumber":2,"parameterNumberName":"U-component_of_WINDS"},"data":[0,0,0,0,0,0,0,0,0,0,0,0,0,0,0,0,0,0,0,0,0,0,0,0,0,0,0,0,0,0,0,0,0,0,0,0,0,0,0,0,0,0,0,0,0,0,0,0,0,0,0,0,0,0,0,0,0,0,-3.3386,-3.3387,0,-3.346,-3.3461,-3.3462,-3.3474,-3.3473,-3.3473,-3.3472,-3.3544,-3.3546,-3.3549,0,0,0,0,0,0,0,0,0,0,0,0,0,-3.3254,-3.3257,-3.3386,-3.3387,-3.3388,-3.346,-3.3461,-3.3462,-3.3474,-3.3473,-3.3472,-3.3472,-3.3543,-3.3546,-3.3549,0,0,0,0,0,0,0,0,0,0,0,0,0,-3.3318,-3.3257,-3.3386,-3.3403,-3.3405,-3.346,-3.3461,-3.3462,-3.3474,-3.3473,-3.3472,-3.3471,-3.3542,-3.3546,-3.3549,-3.3591,0,0,-3.3561,-3.3562,0,0,0,0,0,0,0,0,-3.3314,-3.3323,-3.3399,-3.3402,-3.3404,-3.3457,-3.3441,-3.3505,-3.3474,-3.3448,-3.3472,-3.3471,-3.3515,-3.3521,-3.3537,-3.3594,-3.3598,-3.3561,-3.3563,-3.3565,-3.3566,0,0,0,0,0,0,0,-3.331,-3.332,-3.3415,-3.34,-3.3403,-3.3406,-3.3414,-3.3453,-3.3486,-3.345,-3.3451,-3.346,-3.3517,-3.3533,-3.3539,-3.3599,-3.3561,-3.3564,-3.3567,-3.3568,-3.3697,-3.3698,0,0,0,0,0,0,-3.3303,-3.3316,-3.3413,-3.3417,-3.3356,-3.3409,-3.3418,-3.3441,-3.3485,-3.3491,-3.3461,-3.346,-3.3527,-3.3534,-3.3541,-3.3594,-3.3565,-3.3568,-3.3571,-3.3696,-3.3697,-3.3698,0,0,0,0,0,0,-3.33,-3.3311,-3.341,-3.3367,-3.338,-3.3413,-3.3438,-3.3443,-3.346,-3.3494,-3.3499,-3.3472,-3.3527,-3.3536,-3.358,-3.3597,-3.357,-3.3574,-3.3694,-3.3696,-3.3698,-3.3699,0,0,0,0,0,0,-3.3296,-3.331,-3.3326,-3.3367,-3.3382,-3.3447,-3.3439,-3.3445,-3.3466,-3.3467,-3.3506,-3.3511,-3.3527,-3.3574,-3.3583,-3.3601,-3.3576,-3.3693,-3.3695,-3.3697,-3.3698,-3.3701,-3.3704,0,0,0,0,0,-3.3291,-3.3322,-3.3327,-3.3339,-3.3403,-3.3448,-3.3456,-3.3475,-3.3468,-3.3484,-3.3507,-3.351,-3.3594,-3.3578,-3.3589,-3.3608,-3.3692,-3.3694,-3.3697,-3.3697,-3.37,-3.3704,0,0,0,0,0,0,-3.328,-3.3328,-3.3333,-3.3379,-3.341,-3.345,-3.3471,-3.3478,-3.351,-3.3508,-3.353,-3.3538,-3.3581,-3.3599,-3.3581,-3.3653,-3.3642,-3.3647,-3.3638,-3.3642,-3.3645,-3.3639,-3.358,0,0,0,0,0,-3.3284,-3.3317,-3.3356,-3.3393,-3.3408,-3.3437,-3.3457,-3.347,-3.3501,-3.3514,-3.3539,-3.3569,-3.3603,-3.3624,-3.3656,-3.3702,-3.3711,-3.3721,-3.3724,-3.3726,-3.3729,-3.3756,-3.3761,-3.3707,-3.3707,-3.3707,0,0,-3.3289,-3.332,-3.3339,-3.3391,-3.3416,-3.345,-3.3447,-3.3482,-3.3507,-3.3519,-3.3561,-3.3582,-3.3617,-3.3662,-3.3683,-3.3678,-3.3747,-3.3729,-3.3731,-3.3733,-3.3759,-3.3764,-3.3769,-3.3709,-3.3708,-3.3708,0,0,-3.3318,-3.3344,-3.3378,-3.3404,-3.3443,-3.3463,-3.3472,-3.3512,-3.3526,-3.357,-3.358,-3.361,-3.3667,-3.3692,-3.3712,-3.3755,-3.3759,-3.3765,-3.3779,-3.3805,-3.381,-3.3813,-3.3829,-3.3834,-3.3769,-3.3769,-3.3769,0,-3.3319,-3.3371,-3.3394,-3.343,-3.3453,-3.3468,-3.3502,-3.3526,-3.3573,-3.3589,-3.3584,-3.3658,-3.3682,-3.3734,-3.3745,-3.3761,-3.3771,-3.3759,-3.3807,-3.3811,-3.3815,-3.383,-3.3836,-3.3769,-3.3769,-3.3769,-3.3769,0,-3.3372,-3.3408,-3.3431,-3.3479,-3.3505,-3.3539,-3.3568,-3.3591,-3.3603,-3.3623,-3.3669,-3.37,-3.374,-3.3754,-3.3764,-3.3808,-3.3804,-3.3803,-3.3793,-3.3821,-3.3835,-3.384,-3.377,-3.377,-3.377,-3.377,0,0,-3.3391,-3.3455,-3.3462,-3.3485,-3.3531,-3.3559,-3.3596,-3.3637,-3.3657,-3.369,-3.3721,-3.3771,-3.3772,-3.3795,-3.3809,-3.3832,-3.3865,-3.3829,-3.383,-3.3834,-3.3915,-3.3914,-3.3921,-3.3869,-3.387,-3.3871,-3.3912,0,-3.3425,-3.3491,-3.3514,-3.3569,-3.3603,-3.362,-3.3652,-3.3683,-3.3705,-3.3736,-3.376,-3.3795,-3.3793,-3.3807,-3.3831,-3.3855,-3.3881,-3.3853,-3.3897,-3.3898,-3.3886,-3.3928,-3.3927,-3.3964,-3.3918,-3.3919,-3.392,0,-3.3471,-3.3507,-3.3566,-3.361,-3.3626,-3.3654,-3.3695,-3.3725,-3.3762,-3.3776,-3.3804,-3.3818,-3.3857,-3.3847,-3.3901,-3.3882,-3.3902,-3.3917,-3.3919,-3.3922,-3.3909,-3.3931,-3.3976,-3.3981,-3.3928,-3.3928,-3.3927,0,-3.3479,-3.3543,-3.3586,-3.3605,-3.3658,-3.3678,-3.3701,-3.3738,-3.3762,-3.3798,-3.3814,-3.3853,-3.3874,-3.3905,-3.3928,-3.3919,-3.3981,-3.3972,-3.3993,-3.3992,-3.4003,-3.4002,-3.405,-3.4019,-3.4019,-3.4019,-3.4018,0,-3.3513,-3.3548,-3.3591,-3.3617,-3.3658,-3.3685,-3.3724,-3.3748,-3.3781,-3.3813,-3.383,-3.3859,-3.389,-3.3923,-3.3942,-3.3985,-3.3994,-3.4006,-3.4011,-3.4004,-3.4002,-3.4015,-3.4013,-3.402,-3.402,-3.4019,-3.4019,0,-3.3527,-3.3558,-3.3606,-3.3654,-3.3667,-3.3695,-3.3735,-3.3762,-3.3786,-3.3825,-3.3836,-3.3873,-3.3913,-3.3941,-3.3992,-3.4006,-3.4051,-3.4056,-3.4039,-3.4041,-3.406,-3.4057,-3.4117,-3.4127,-3.409,-3.409,-3.409,0,-3.3546,-3.3573,-3.3625,-3.3649,-3.3672,-3.3709,-3.3735,-3.3764,-3.379,-3.3836,-3.3857,-3.39,-3.3935,-3.3999,-3.4029,-3.4069,-3.4074,-3.4093,-3.408,-3.4073,-3.4074,-3.4071,-3.4074,-3.4094,-3.4094,-3.4094,-3.4094,0,-3.3575,-3.359,-3.3627,-3.367,-3.3701,-3.3736,-3.377,-3.3788,-3.3824,-3.3852,-3.3895,-3.3922,-3.3977,-3.4018,-3.4062,-3.4085,-3.4096,-3.4099,-3.4106,-3.4098,-3.4087,-3.4093,-3.4043,-3.4096,-3.4096,-3.4096,-3.4096,-3.4096,-3.3592,-3.3618,-3.366,-3.3701,-3.3731,-3.3764,-3.3792,-3.3821,-3.3857,-3.3904,-3.392,-3.3964,-3.4003,-3.4063,-3.4087,-3.4123,-3.4121,-3.4131,-3.4133,-3.4134,-3.4134,-3.4083,-3.4131,-3.4131,-3.4131,-3.4131,-3.4131,0,-3.3623,-3.3651,-3.3689,-3.3738,-3.3771,-3.3781,-3.3821,-3.3847,-3.3887,-3.3923,-3.3958,-3.4008,-3.405,-3.4085,-3.4128,-3.415,-3.4156,-3.416,-3.4157,-3.4163,-3.4133,-3.4123,-3.4154,-3.4154,-3.4154,-3.4154,-3.4154,-3.4154,-3.3642,-3.3687,-3.3707,-3.3768,-3.3796,-3.3841,-3.3863,-3.3894,-3.3923,-3.3979,-3.4014,-3.4038,-3.4074,-3.412,-3.4159,-3.4169,-3.4183,-3.4186,-3.4196,-3.4167,-3.4165,-3.4162,-3.4152,-3.4189,-3.4189,-3.4223,-3.4223,-3.4223]},{"header":{"parameterUnit":"m.s-1","parameterCategory":1,"la1":30.2991,"la2":30.254,"lo1":-89.0895,"lo2":-89.0444,"dy":0.0017,"dx":0.0017,"nx":28,"ny":28,"refTime":"2025-04-28T21:00:00:Z","depth":0,"parameterNumber":3,"parameterNumberName":"V-component_of_WINDS"},"data":[0,0,0,0,0,0,0,0,0,0,0,0,0,0,0,0,0,0,0,0,0,0,0,0,0,0,0,0,0,0,0,0,0,0,0,0,0,0,0,0,0,0,0,0,0,0,0,0,0,0,0,0,0,0,0,0,0,0,3.575,3.575,0,3.5724,3.5724,3.5723,3.5726,3.5726,3.5726,3.5727,3.5691,3.569,3.5689,0,0,0,0,0,0,0,0,0,0,0,0,0,3.5797,3.5796,3.575,3.575,3.5749,3.5724,3.5724,3.5723,3.5726,3.5726,3.5727,3.5727,3.5692,3.569,3.5688,0,0,0,0,0,0,0,0,0,0,0,0,0,3.5774,3.5796,3.575,3.5748,3.5747,3.5724,3.5724,3.5723,3.5725,3.5726,3.5727,3.5727,3.5692,3.569,3.5688,3.5663,0,0,3.5682,3.5681,0,0,0,0,0,0,0,0,3.5775,3.5772,3.5748,3.5748,3.5747,3.5729,3.5727,3.5703,3.5725,3.5733,3.5727,3.5728,3.5703,3.57,3.5693,3.5661,3.566,3.5682,3.5681,3.568,3.5679,0,0,0,0,0,0,0,3.5777,3.5773,3.5739,3.5748,3.5747,3.5746,3.5744,3.5722,3.5714,3.5733,3.5733,3.573,3.5702,3.5695,3.5692,3.5659,3.5682,3.568,3.5679,3.5678,3.5608,3.5608,0,0,0,0,0,0,3.578,3.5774,3.574,3.5739,3.5763,3.5745,3.5742,3.5734,3.5715,3.5713,3.573,3.5731,3.5698,3.5695,3.5691,3.5662,3.568,3.5678,3.5677,3.5609,3.5608,3.5607,0,0,0,0,0,0,3.5781,3.5777,3.5741,3.5757,3.5752,3.5744,3.5734,3.5733,3.5726,3.5713,3.571,3.5724,3.5699,3.5694,3.5671,3.5661,3.5677,3.5675,3.561,3.5609,3.5608,3.5602,0,0,0,0,0,0,3.5782,3.5777,3.5768,3.5757,3.5751,3.5723,3.5734,3.5732,3.5723,3.5724,3.5707,3.5704,3.5699,3.5674,3.5669,3.5658,3.5674,3.561,3.5609,3.5608,3.5603,3.5601,3.56,0,0,0,0,0,3.5784,3.5765,3.5768,3.5764,3.5741,3.5723,3.5719,3.5716,3.5723,3.5713,3.5705,3.5705,3.5663,3.5672,3.5666,3.5654,3.5611,3.5609,3.5608,3.5604,3.5602,3.56,0,0,0,0,0,0,3.5771,3.5763,3.5766,3.5744,3.5735,3.5723,3.5711,3.5713,3.5699,3.57,3.5694,3.569,3.5667,3.5658,3.5668,3.5631,3.5638,3.5635,3.5637,3.5634,3.5632,3.5634,3.5672,0,0,0,0,0,3.5767,3.5756,3.5748,3.5729,3.5725,3.5719,3.5711,3.571,3.5698,3.5693,3.5683,3.5671,3.5655,3.5644,3.5629,3.5603,3.56,3.5592,3.559,3.5589,3.5586,3.5574,3.5571,3.5603,3.5603,3.5603,0,0,3.5755,3.575,3.5742,3.5726,3.5719,3.5706,3.5715,3.57,3.569,3.569,3.5669,3.5662,3.5647,3.5624,3.5613,3.5616,3.5577,3.5587,3.5586,3.5584,3.5572,3.5569,3.5567,3.5602,3.5602,3.5602,0,0,3.5729,3.5723,3.5708,3.5702,3.5693,3.569,3.5686,3.5676,3.5672,3.5652,3.5654,3.564,3.5613,3.5603,3.5595,3.557,3.5569,3.5565,3.5554,3.5542,3.554,3.5538,3.553,3.5527,3.5563,3.5563,3.5563,0,3.5715,3.5697,3.5699,3.5686,3.5679,3.5683,3.5668,3.5661,3.5645,3.564,3.5644,3.5613,3.5603,3.5579,3.5573,3.5566,3.5561,3.5566,3.5541,3.5539,3.5536,3.5529,3.5525,3.5562,3.5562,3.5562,3.5562,0,3.5682,3.567,3.5658,3.5648,3.564,3.5625,3.5624,3.5615,3.5616,3.5613,3.5593,3.5583,3.5566,3.5561,3.5559,3.5537,3.5539,3.5543,3.5549,3.5533,3.5526,3.5522,3.5562,3.5562,3.5562,3.5562,0,0,3.5642,3.5638,3.5633,3.563,3.5622,3.5612,3.5598,3.5586,3.5579,3.557,3.5557,3.5537,3.5541,3.5532,3.553,3.552,3.5503,3.5524,3.5524,3.5521,3.5479,3.5476,3.5472,3.5503,3.5503,3.5502,3.548,0,3.5615,3.5593,3.5596,3.5574,3.5564,3.5571,3.5559,3.5552,3.5549,3.5539,3.5535,3.5521,3.5527,3.5522,3.5513,3.5507,3.5494,3.5508,3.549,3.549,3.5493,3.5468,3.5465,3.5444,3.5477,3.5477,3.5476,0,3.5579,3.5573,3.5551,3.5549,3.5545,3.5534,3.5525,3.5515,3.5508,3.5507,3.55,3.5501,3.5486,3.5495,3.5475,3.5485,3.5478,3.5475,3.5474,3.5471,3.5481,3.5464,3.5437,3.5434,3.5471,3.5472,3.5472,0,3.5553,3.5539,3.5526,3.5523,3.5519,3.5512,3.5509,3.5504,3.5497,3.5489,3.5485,3.5474,3.5467,3.5459,3.5456,3.5463,3.5437,3.5445,3.5434,3.5435,3.5427,3.5427,3.5397,3.5423,3.5424,3.5424,3.5424,0,3.5522,3.5508,3.5515,3.5506,3.5492,3.5496,3.5481,3.5479,3.5475,3.5465,3.5469,3.5459,3.5458,3.5448,3.5446,3.543,3.5427,3.5425,3.5424,3.5424,3.5425,3.5419,3.542,3.5423,3.5423,3.5423,3.5423,0,3.5489,3.5493,3.5479,3.5479,3.5479,3.5468,3.5467,3.5458,3.5459,3.5446,3.5444,3.5442,3.5431,3.543,3.5415,3.5414,3.5395,3.5396,3.5399,3.5398,3.5388,3.5389,3.5353,3.5349,3.5378,3.5378,3.5377,0,3.5468,3.5459,3.546,3.5456,3.5454,3.5446,3.5442,3.5446,3.5441,3.5435,3.5427,3.5418,3.541,3.5392,3.5388,3.5378,3.5379,3.5367,3.5377,3.5378,3.5379,3.5379,3.5379,3.5364,3.5364,3.5364,3.5363,0,3.5431,3.5435,3.5429,3.5426,3.5422,3.5418,3.5414,3.541,3.5414,3.5408,3.5399,3.5394,3.5382,3.5372,3.5363,3.5359,3.5362,3.5361,3.5358,3.5357,3.5359,3.5359,3.5393,3.5361,3.5361,3.5362,3.5362,3.5362,3.5404,3.5397,3.5398,3.5392,3.5392,3.539,3.5383,3.5385,3.5378,3.5371,3.5374,3.5364,3.536,3.5349,3.5345,3.5336,3.534,3.5335,3.5334,3.5332,3.5332,3.5362,3.5334,3.5334,3.5334,3.5335,3.5335,0,3.5367,3.5369,3.5365,3.5363,3.5359,3.5367,3.5365,3.536,3.5353,3.535,3.5345,3.5335,3.5327,3.5325,3.5317,3.5311,3.5312,3.5309,3.5309,3.5308,3.5329,3.5332,3.5308,3.5308,3.5308,3.5308,3.5308,3.5308,3.5347,3.5337,3.5342,3.5332,3.5334,3.5327,3.5325,3.5323,3.5322,3.5313,3.5308,3.5308,3.5306,3.5299,3.5292,3.5292,3.5288,3.5284,3.5284,3.5303,3.5306,3.5308,3.5312,3.5284,3.5284,3.5264,3.5264,3.5264]}]]